Date,TemperatureHighF,TemperatureAvgF,TemperatureLowF,DewpointHighF,DewpointAvgF,DewpointLowF,HumidityHigh,HumidityAvg,HumidityLow,PressureMaxIn,PressureMinIn,WindSpeedMaxMPH,WindSpeedAvgMPH,GustSpeedMaxMPH,PrecipitationSumIn
2013-1-1,54,47,36,43,38,31,83,73,57,30.18,30.12,4,1,4,0.00
2013-1-2,52,50,47,47,45,43,88,84,76,30.31,30.10,14,4,14,0.36
2013-1-3,60,54,50,45,43,41,77,68,57,30.51,30.30,21,9,21,0.01
2013-1-4,58,50,44,45,41,38,81,72,59,30.50,30.31,16,6,16,0.00
2013-1-5,54,50,44,45,43,39,87,77,69,30.18,30.10,13,2,13,0.00
2013-1-6,59,52,48,48,42,38,87,69,50,30.22,30.10,22,6,22,0.00
2013-1-7,62,53,47,46,41,34,88,66,36,30.26,30.07,22,7,22,0.00
2013-1-8,58,51,46,41,37,33,78,59,44,30.31,30.23,14,5,14,0.00
2013-1-9,58,51,46,44,42,39,79,71,59,30.23,30.14,12,2,12,0.00
2013-1-10,56,52,49,48,45,42,88,79,68,30.15,29.83,12,2,12,0.02
2013-1-11,56,50,44,49,45,40,91,82,66,29.87,29.75,30,5,30,0.23
2013-1-12,57,48,41,45,42,37,88,80,61,30.08,29.83,10,3,10,0.04
2013-1-13,56,50,47,51,46,42,89,84,71,30.07,29.87,26,6,26,0.16
2013-1-14,56,52,46,50,47,43,90,83,73,29.97,29.83,23,7,23,0.48
2013-1-15,54,49,43,45,42,39,89,78,60,29.96,29.67,9,2,9,0.02
2013-1-16,49,44,39,43,38,34,87,80,61,29.67,29.50,33,7,33,0.65
2013-1-17,53,45,39,46,40,36,90,82,63,29.54,29.34,20,7,20,0.75
2013-1-18,47,41,36,37,35,33,90,81,66,29.62,29.32,18,2,18,0.11
2013-1-19,50,42,35,46,37,31,88,83,69,29.70,29.61,12,4,12,0.03
2013-1-20,62,56,50,54,52,46,91,84,71,29.61,29.48,21,6,21,0.41
2013-1-21,55,51,48,50,46,40,92,86,66,29.59,29.37,32,7,32,0.77
2013-1-22,54,48,44,46,42,38,91,82,55,29.84,29.58,39,8,39,0.17
2013-1-23,52,44,41,47,40,38,90,86,77,29.85,29.62,29,8,29,1.08
2013-1-24,53,46,43,43,42,39,89,83,67,29.62,29.39,14,5,14,0.34
2013-1-25,54,48,44,41,37,30,88,68,53,29.63,29.43,33,10,33,0.00
2013-1-26,49,45,40,36,31,29,71,60,51,29.86,29.62,21,6,21,0.00
2013-1-27,53,45,40,36,32,28,80,60,44,30.01,29.86,15,6,15,0.00
2013-1-28,50,45,39,41,38,34,84,77,61,30.04,29.88,23,6,23,0.08
2013-1-29,59,51,45,42,39,35,84,64,47,30.24,30.04,31,8,31,0.00
2013-1-30,59,49,42,48,44,39,89,83,67,30.24,30.18,15,2,15,0.00
2013-1-31,64,54,49,52,48,45,89,82,61,30.22,30.12,14,3,14,0.00
2013-2-1,60,55,49,52,50,46,91,84,70,30.20,29.82,14,4,14,0.00
2013-2-2,61,55,47,52,50,42,90,84,69,29.82,29.30,36,14,36,0.30
2013-2-3,49,45,43,44,39,30,87,79,57,29.96,29.44,32,8,32,0.51
2013-2-4,55,46,39,37,31,26,78,58,34,30.16,29.96,15,5,15,0.00
2013-2-5,54,46,36,48,38,29,89,74,58,30.14,29.81,18,4,18,0.08
2013-2-6,51,49,47,48,46,45,92,91,89,29.81,29.67,4,1,4,0.01
2013-2-7,50,45,42,41,39,37,84,79,68,29.55,29.50,21,7,21,0.18
2013-2-8,50,44,39,37,33,29,80,66,53,29.75,29.55,17,6,17,0.01
2013-2-9,48,40,36,32,30,27,83,66,50,29.89,29.73,24,7,24,0.03
2013-2-10,47,40,35,30,27,23,77,61,40,29.99,29.87,26,9,26,0.01
2013-2-11,54,44,36,45,35,25,86,71,58,30.00,29.64,32,11,32,0.25
2013-2-12,48,45,43,45,41,37,90,85,80,29.69,29.58,23,6,23,0.68
2013-2-13,56,47,41,43,40,38,91,77,56,29.84,29.65,16,3,16,0.02
2013-2-14,55,48,43,40,37,34,80,65,51,29.99,29.83,22,10,22,0.00
2013-2-15,54,47,39,41,38,32,81,70,52,30.01,29.97,17,4,17,0.00
2013-2-16,56,50,45,40,38,35,81,64,51,30.08,29.97,20,7,20,0.01
2013-2-17,57,49,43,41,36,33,75,62,43,30.07,29.97,18,6,18,0.00
2013-2-18,54,47,43,40,38,35,77,71,53,30.00,29.93,17,6,17,0.00
2013-2-19,54,45,40,37,34,29,80,67,40,30.00,29.93,20,6,20,0.00
2013-2-20,55,46,39,39,36,34,82,70,49,30.01,29.92,13,3,13,0.00
2013-2-21,53,45,40,39,35,33,79,68,54,29.92,29.70,14,4,14,0.00
2013-2-22,52,46,38,50,42,32,91,87,77,29.70,29.50,22,5,22,1.06
2013-2-23,56,52,44,49,46,40,91,82,70,29.67,29.50,31,8,31,0.36
2013-2-24,53,46,40,47,39,31,88,75,50,29.97,29.66,29,8,29,0.10
2013-2-25,53,45,39,42,37,33,85,75,57,30.05,29.96,18,5,18,0.07
2013-2-26,55,49,44,42,37,35,80,65,50,30.11,30.00,15,4,15,0.01
2013-2-27,56,50,44,40,39,37,78,64,52,30.21,30.11,16,5,16,0.00
2013-2-28,61,51,43,43,38,36,75,63,44,30.23,30.15,17,6,17,0.00
2013-3-1,57,52,47,41,39,37,71,61,51,30.15,29.87,32,14,32,0.00
2013-3-2,54,52,48,42,40,33,68,63,55,30.00,29.77,58,24,58,0.00
2013-3-3,62,50,43,43,36,27,83,59,30,30.08,29.99,18,6,18,0.00
2013-3-4,61,50,42,45,42,38,88,74,50,30.21,30.08,16,4,16,0.00
2013-3-5,63,53,43,45,41,37,83,64,41,30.22,30.01,16,3,16,0.01
2013-3-6,60,56,52,52,47,41,88,73,55,30.02,29.77,24,8,24,0.23
2013-3-7,60,57,55,56,53,52,91,89,86,29.81,29.74,12,3,12,0.32
2013-3-8,59,56,54,55,53,52,93,89,79,29.81,29.67,22,6,22,0.43
2013-3-9,65,58,53,53,50,46,91,77,51,29.82,29.72,26,8,26,0.01
2013-3-10,64,57,53,53,51,47,92,82,59,29.74,29.60,30,8,30,0.22
2013-3-11,62,56,52,52,49,47,88,77,60,29.65,29.59,22,9,22,0.01
2013-3-12,60,52,47,49,46,42,91,81,62,29.63,29.53,25,7,25,1.33
2013-3-13,56,51,48,50,47,45,90,87,77,29.54,29.26,26,7,26,0.39
2013-3-14,51,48,45,46,45,42,91,88,79,29.30,29.09,14,3,14,0.98
2013-3-15,46,42,39,42,32,26,88,69,53,29.88,29.30,32,11,32,0.33
2013-3-16,53,44,38,32,28,24,66,53,37,30.16,29.88,18,6,18,0.00
2013-3-17,53,48,40,35,32,29,65,54,48,30.14,30.04,13,6,13,0.00
2013-3-18,61,56,51,54,43,34,88,63,48,30.04,29.57,34,12,34,0.43
2013-3-19,60,53,46,46,43,41,81,71,57,29.84,29.70,32,10,32,0.00
2013-3-20,63,50,44,47,42,36,90,75,44,29.84,29.69,16,3,16,0.29
2013-3-21,64,55,48,50,43,35,93,68,36,29.96,29.65,27,9,27,0.05
2013-3-22,61,54,43,47,42,35,85,66,46,29.96,29.88,20,6,20,0.00
2013-3-23,66,55,45,50,46,41,88,73,49,29.96,29.80,13,3,13,0.00
2013-3-24,76,62,51,49,44,35,81,54,25,29.80,29.46,23,7,23,0.00
2013-3-25,61,57,54,53,50,46,87,76,63,29.49,29.31,22,11,22,0.09
2013-3-26,56,53,51,51,47,44,90,81,71,29.60,29.49,21,5,21,0.54
2013-3-27,61,54,49,52,48,44,92,81,62,29.83,29.60,18,5,18,0.01
2013-3-28,61,55,51,54,49,45,88,80,74,29.92,29.82,15,5,15,0.00
2013-3-29,67,59,53,55,52,50,92,79,58,29.91,29.82,20,5,20,0.05
2013-3-30,63,57,52,55,53,50,90,85,70,29.83,29.54,26,9,26,0.52
2013-3-31,60,56,51,52,49,44,89,79,59,29.71,29.53,37,17,37,0.44
2013-4-1,64,55,48,52,49,43,92,80,49,29.77,29.62,21,5,21,0.24
2013-4-2,62,56,51,54,51,48,91,85,70,29.62,29.41,30,12,30,0.70
2013-4-3,60,55,50,51,49,47,92,80,65,29.81,29.55,26,7,26,0.03
2013-4-4,69,59,50,50,48,40,90,69,36,29.84,29.56,17,4,17,0.00
2013-4-5,64,59,54,54,50,43,87,73,49,29.81,29.44,28,10,28,0.00
2013-4-6,67,60,52,53,50,44,90,72,54,29.81,29.70,20,6,20,0.00
2013-4-7,67,60,55,50,44,42,73,56,42,29.75,29.62,26,8,26,0.00
2013-4-8,63,55,50,49,42,34,82,63,45,29.91,29.74,22,8,22,0.00
2013-4-9,66,58,52,53,49,44,87,74,48,29.99,29.84,22,8,22,0.00
2013-4-10,67,59,54,53,50,48,84,74,56,30.04,29.93,20,6,20,0.00
2013-4-11,69,61,54,52,49,45,85,66,48,30.06,30.02,21,6,21,0.00
2013-4-12,69,60,53,54,51,49,88,74,53,30.05,29.99,24,5,24,0.00
2013-4-13,70,63,57,54,52,49,84,70,51,30.26,30.05,22,6,22,0.00
2013-4-14,80,64,54,56,52,44,87,68,32,30.31,30.24,20,4,20,0.00
2013-4-15,78,65,57,50,41,35,72,42,27,30.28,30.13,22,6,22,0.00
2013-4-16,74,63,55,56,50,42,84,62,43,30.18,30.11,21,4,21,0.00
2013-4-17,75,65,56,52,40,34,75,42,24,30.21,30.15,24,6,24,0.00
2013-4-18,76,65,55,54,41,33,76,44,22,30.18,30.05,22,6,22,0.00
2013-4-19,74,64,54,60,55,49,86,73,53,30.07,29.95,20,5,20,0.00
2013-4-20,74,64,58,58,55,53,89,75,51,30.03,29.97,22,6,22,0.00
2013-4-21,66,60,56,53,47,42,79,64,44,30.04,29.97,21,8,21,0.00
2013-4-22,64,55,49,49,47,44,86,75,52,30.06,29.91,20,5,20,0.38
2013-4-23,73,61,51,54,48,42,81,64,39,30.25,30.05,16,6,16,0.00
2013-4-24,75,66,59,54,51,48,70,59,45,30.33,30.24,28,13,28,0.00
2013-4-25,82,72,62,56,52,47,65,50,35,30.26,30.10,25,10,25,0.00
2013-4-26,81,69,60,56,52,44,82,57,30,30.14,29.97,22,8,22,0.13
2013-4-27,63,60,57,57,55,53,90,84,79,29.97,29.83,15,4,15,0.47
2013-4-28,83,70,57,60,56,53,87,63,37,29.99,29.88,12,4,12,0.00
2013-4-29,89,77,65,60,53,47,72,45,27,30.02,29.98,17,6,17,0.00
2013-4-30,92,76,67,59,54,49,64,47,26,30.09,30.00,17,6,17,0.00
2013-5-1,87,76,67,60,54,45,69,49,26,30.06,29.96,18,5,18,0.00
2013-5-2,86,74,66,60,55,44,74,55,25,30.00,29.89,18,1,18,0.02
2013-5-3,87,72,60,61,56,50,79,60,34,29.95,29.89,0,0,0,0.00
2013-5-4,88,73,62,61,57,52,82,60,32,30.01,29.87,0,0,0,0.00
2013-5-5,85,73,64,62,58,52,80,60,35,30.03,29.90,0,0,0,0.03
2013-5-6,72,66,60,62,58,54,82,74,63,30.02,29.88,0,0,0,0.25
2013-5-7,72,64,58,58,55,53,87,74,52,30.03,29.98,0,0,0,0.23
2013-5-8,73,66,59,60,57,55,91,76,56,30.02,29.91,0,0,0,0.01
2013-5-9,81,68,61,60,56,51,84,67,37,29.99,29.93,0,0,0,0.23
2013-5-10,75,67,61,60,58,54,89,74,53,29.99,29.94,0,0,0,0.00
2013-5-11,73,66,61,60,57,52,88,73,56,29.97,29.87,0,0,0,0.00
2013-5-12,73,65,60,57,55,51,84,70,49,29.90,29.83,0,0,0,0.04
2013-5-13,77,66,59,56,51,46,84,61,36,29.97,29.87,0,0,0,0.72
2013-5-14,79,65,55,54,46,40,69,52,30,30.01,29.90,0,0,0,0.00
2013-5-15,77,66,57,57,51,39,75,60,27,29.91,29.71,0,0,0,0.00
2013-5-16,81,71,66,61,56,48,74,58,44,29.72,29.49,0,0,0,0.06
2013-5-17,72,66,60,61,56,48,84,70,46,29.96,29.57,0,0,0,0.14
2013-5-18,89,71,58,57,53,46,80,57,29,30.02,29.85,0,0,0,0.00
2013-5-19,74,67,60,61,52,41,82,60,36,30.09,29.82,0,0,0,0.00
2013-5-20,73,65,56,56,49,42,79,58,34,30.12,30.08,0,0,0,0.00
2013-5-21,82,66,59,56,50,43,78,57,32,30.10,29.81,0,0,0,0.16
2013-5-22,77,68,61,61,56,54,80,68,54,29.82,29.34,0,0,0,0.13
2013-5-23,68,63,60,60,56,51,90,78,54,29.69,29.40,0,0,0,0.05
2013-5-24,66,62,57,56,51,43,87,69,43,29.90,29.69,0,0,0,0.05
2013-5-25,64,57,52,52,49,45,87,75,53,29.93,29.88,0,0,0,0.31
2013-5-26,65,58,52,50,46,44,88,67,49,30.04,29.86,0,0,0,0.09
2013-5-27,69,60,51,51,48,46,86,66,46,30.04,29.92,0,0,0,0.00
2013-5-28,79,67,56,54,49,42,77,56,32,29.92,29.62,0,0,0,0.00
2013-5-29,71,63,57,57,53,49,84,70,53,29.77,29.68,0,0,0,0.09
2013-5-30,65,58,52,53,49,46,84,72,53,29.82,29.74,0,0,0,0.27
2013-5-31,64,58,50,57,52,46,88,80,61,29.82,29.74,0,0,0,0.20
2013-6-1,63,58,54,57,54,51,90,84,73,29.80,29.74,0,0,0,0.36
2013-6-2,72,61,50,58,54,48,92,79,59,29.97,29.79,0,0,0,0.01
2013-6-3,75,64,58,59,56,54,89,75,50,29.97,29.89,0,0,0,0.34
2013-6-4,72,63,58,59,56,54,88,77,60,30.00,29.92,0,0,0,0.05
2013-6-5,73,65,58,60,57,54,90,77,56,30.08,29.99,0,0,0,0.01
2013-6-6,82,70,60,62,59,55,88,70,46,30.08,29.98,0,0,0,0.00
2013-6-7,87,74,65,59,55,52,69,54,33,30.02,29.94,0,0,0,0.00
2013-6-8,82,73,65,63,59,55,84,63,47,30.00,29.92,0,0,0,0.00
2013-6-9,83,72,64,65,59,52,89,66,46,29.99,29.86,0,0,0,0.00
2013-6-10,75,69,62,62,56,52,78,65,45,29.91,29.84,0,0,0,0.00
2013-6-11,76,68,62,61,58,55,84,71,53,29.95,29.88,1,0,0,0.08
2013-6-12,84,72,61,60,56,47,86,60,34,30.01,29.94,17,1,17,0.03
2013-6-13,87,78,65,56,52,47,55,42,30,30.01,29.96,23,8,23,1.14
2013-6-14,86,76,68,64,57,52,79,53,38,30.05,29.98,20,6,20,0.00
2013-6-15,83,74,66,67,63,60,84,69,55,30.07,30.03,18,5,18,0.00
2013-6-16,86,76,66,66,63,60,84,67,48,30.08,30.02,18,4,18,0.00
2013-6-17,92,80,69,72,67,63,82,66,47,30.06,29.97,15,4,15,0.00
2013-6-18,96,85,75,72,68,66,74,59,43,30.02,29.97,18,6,18,0.00
2013-6-19,96,85,75,71,66,63,73,55,39,30.01,29.97,20,6,20,0.00
2013-6-20,93,79,73,67,64,60,74,61,37,30.01,29.97,16,2,16,0.00
2013-6-21,94,81,71,69,64,58,80,58,34,30.02,29.98,20,5,20,0.00
2013-6-22,88,78,70,69,66,60,87,67,43,30.03,29.96,20,6,20,0.00
2013-6-23,85,75,70,67,64,59,82,70,44,30.03,29.94,22,6,22,0.00
2013-6-24,77,70,66,65,60,54,83,70,51,29.97,29.91,31,10,31,0.00
2013-6-25,80,72,66,62,59,54,84,64,46,30.04,29.93,20,6,20,0.00
2013-6-26,84,73,64,60,54,49,68,53,33,30.05,29.99,23,7,23,0.00
2013-6-27,83,72,65,59,54,51,68,53,35,30.07,30.03,22,8,22,0.00
2013-6-28,80,71,63,61,58,55,77,63,46,30.07,29.97,20,6,20,0.00
2013-6-29,77,68,62,61,56,51,81,67,42,30.01,29.95,50,5,50,0.66
2013-6-30,81,70,61,61,55,52,77,60,37,30.08,29.99,22,6,22,0.00
2013-7-1,85,74,63,61,57,51,82,57,34,30.10,30.05,20,6,20,0.00
2013-7-2,86,76,66,62,58,54,73,56,39,30.09,30.02,20,5,20,0.00
2013-7-3,85,75,65,63,58,53,77,58,36,30.05,29.96,20,5,20,0.00
2013-7-4,83,72,67,66,62,57,82,70,46,30.03,29.96,20,4,20,0.11
2013-7-5,90,79,68,64,58,51,78,52,30,30.07,30.00,26,7,26,0.00
2013-7-6,92,80,70,63,58,50,59,47,34,30.07,30.00,22,5,22,0.00
2013-7-7,90,78,71,68,62,59,77,60,41,30.07,30.00,32,5,32,0.06
2013-7-8,90,75,67,66,62,60,83,66,41,30.12,30.04,36,6,36,0.61
2013-7-9,88,73,68,66,62,58,83,69,43,30.07,29.97,37,5,37,0.11
2013-7-10,85,76,66,68,64,60,86,67,46,29.98,29.87,20,5,20,0.00
2013-7-11,84,76,69,70,67,64,86,74,57,29.94,29.87,21,5,21,0.00
2013-7-12,86,77,69,70,67,63,84,72,56,30.03,29.93,18,5,18,0.00
2013-7-13,87,79,71,70,67,64,83,69,49,30.03,29.98,23,6,23,0.00
2013-7-14,88,77,69,71,67,63,84,73,48,30.02,29.96,31,6,31,0.46
2013-7-15,90,78,68,68,63,55,79,62,33,30.04,29.97,20,8,20,0.00
2013-7-16,91,79,71,67,59,-100,76,51,34,30.08,30.03,15,5,21,0.00
2013-7-17,92,80,72,68,59,54,68,50,33,30.08,30.00,17,6,17,0.00
2013-7-18,88,79,72,63,59,55,63,50,40,30.07,30.03,22,6,22,0.00
2013-7-19,88,78,71,69,62,58,71,60,45,30.06,29.99,23,6,23,0.00
2013-7-20,88,78,69,70,63,59,80,61,40,30.01,29.92,20,7,20,0.00
2013-7-21,89,77,71,69,63,57,83,63,38,30.00,29.93,23,6,23,0.02
2013-7-22,92,80,69,70,63,59,72,59,36,30.00,29.91,22,6,22,0.00
2013-7-23,91,82,74,72,65,60,81,59,40,29.97,29.89,18,6,18,0.00
2013-7-24,89,81,73,72,71,68,85,72,53,30.02,29.95,20,5,20,0.00
2013-7-25,90,81,75,73,70,64,85,71,44,30.04,30.00,20,5,20,0.00
2013-7-26,93,82,73,76,72,69,87,72,47,30.03,29.95,20,4,20,0.00
2013-7-27,95,84,75,75,72,69,84,69,47,29.96,29.91,16,4,16,0.00
2013-7-28,97,85,76,77,71,68,79,64,46,30.05,29.94,20,4,20,0.00
2013-7-29,95,85,75,73,69,65,76,61,42,30.08,30.00,22,5,22,0.00
2013-7-30,91,89,86,69,68,66,54,49,46,29.96,29.94,15,6,15,0.00
2013-8-6,93,87,80,74,71,65,79,61,43,29.97,29.93,18,7,18,0.00
2013-8-7,94,85,75,77,72,68,82,66,48,29.96,29.91,17,4,17,0.00
2013-8-8,96,85,77,76,72,69,81,67,44,29.96,29.90,20,4,20,0.00
2013-8-9,96,80,70,75,68,61,81,68,33,29.92,29.79,32,7,32,0.15
2013-8-10,88,77,68,66,62,60,77,60,45,29.90,29.81,22,6,22,0.01
2013-8-11,95,81,72,70,63,60,77,57,32,29.94,29.88,18,5,18,0.00
2013-8-12,90,81,75,72,66,61,77,60,46,29.99,29.93,21,6,21,0.00
2013-8-13,90,80,71,70,68,66,85,70,50,29.99,29.94,20,5,20,0.00
2013-8-14,88,79,73,73,68,61,85,70,48,29.96,29.89,24,6,24,0.00
2013-8-15,91,84,74,66,64,62,70,52,41,30.02,29.91,16,9,16,0.00
2013-8-16,94,81,73,67,62,57,69,55,32,30.03,29.96,21,8,21,0.00
2013-8-17,92,81,75,69,65,60,74,58,41,30.02,29.97,20,5,20,0.00
2013-8-18,91,81,72,71,66,61,81,63,38,30.06,29.99,20,5,20,0.00
2013-8-19,91,80,72,71,68,61,86,69,38,30.04,29.95,18,5,18,0.00
2013-8-20,85,77,72,70,66,59,84,69,49,29.98,29.89,23,7,23,0.35
2013-8-21,86,79,71,65,61,58,69,55,46,29.98,29.92,31,12,31,0.00
2013-8-22,94,79,72,69,62,57,75,57,34,29.98,29.90,25,7,25,0.00
2013-8-23,89,80,72,70,66,61,81,64,42,29.99,29.94,20,5,20,0.00
2013-8-24,87,79,72,70,66,60,83,66,41,29.99,29.90,20,6,20,0.00
2013-8-25,81,74,66,69,65,62,88,75,59,29.92,29.83,31,4,31,0.59
2013-8-26,85,77,69,68,65,62,85,67,48,29.89,29.82,17,4,17,0.00
2013-8-27,84,75,69,71,67,64,87,77,61,29.89,29.78,23,5,23,0.41
2013-8-28,83,74,67,68,64,60,88,72,49,29.98,29.85,23,5,23,0.01
2013-8-29,82,74,66,66,62,59,84,67,47,30.07,29.98,13,3,13,0.00
2013-8-30,85,76,69,62,58,55,72,56,40,30.06,29.95,20,9,20,0.00
2013-8-31,88,77,68,58,54,50,58,46,29,30.06,29.97,17,6,17,0.00
2013-9-1,90,77,68,66,54,48,70,47,28,30.07,29.98,18,7,18,0.00
2013-9-2,88,77,69,66,59,54,71,55,32,30.16,30.04,22,6,22,0.00
2013-9-3,89,78,70,63,55,50,62,46,29,30.18,30.12,18,8,18,0.00
2013-9-4,90,79,67,61,53,49,56,41,28,30.19,30.08,26,7,26,0.00
2013-9-5,90,79,72,66,57,52,59,47,29,30.11,29.94,23,6,23,0.00
2013-9-6,91,81,74,68,62,58,78,54,36,29.96,29.87,21,3,21,0.00
2013-9-7,88,78,70,70,66,61,81,68,47,30.10,29.95,22,4,22,0.00
2013-9-8,88,78,70,71,68,63,87,72,45,30.16,30.09,18,4,18,0.00
2013-9-9,84,76,71,71,68,65,87,77,55,30.15,30.06,24,5,24,0.07
2013-9-10,80,73,64,67,64,58,89,75,61,30.11,29.94,32,3,32,1.12
2013-9-11,80,71,64,68,64,61,93,81,57,30.03,29.98,26,6,26,0.40
2013-9-12,76,71,64,67,60,55,90,68,52,30.01,29.93,24,10,24,0.41
2013-9-13,79,69,62,60,57,55,80,67,43,30.12,29.97,21,4,21,0.00
2013-9-14,80,70,62,62,59,56,81,69,46,30.12,30.06,20,6,20,0.00
2013-9-15,75,69,61,62,60,57,87,73,60,30.08,29.82,17,4,17,0.00
2013-9-16,79,70,64,65,61,57,91,74,49,29.82,29.74,22,6,22,0.35
2013-9-17,75,68,64,67,60,57,92,77,57,29.76,29.66,37,8,37,0.17
2013-9-18,75,68,61,61,58,56,86,73,55,29.78,29.72,22,4,22,0.00
2013-9-19,78,71,65,65,62,58,89,75,57,29.85,29.72,20,5,20,0.01
2013-9-20,83,71,62,64,59,56,84,68,41,30.02,29.85,14,4,14,0.00
2013-9-21,86,74,66,64,58,50,79,60,31,30.13,30.02,16,6,16,0.00
2013-9-22,78,72,65,56,50,44,56,45,34,30.18,30.12,29,12,29,0.00
2013-9-23,80,69,61,56,51,44,72,53,37,30.16,30.06,21,6,21,0.00
2013-9-24,80,69,61,61,56,50,81,65,45,30.08,30.04,18,5,18,0.00
2013-9-25,77,69,62,63,60,58,87,74,57,30.06,30.00,17,4,17,0.00
2013-9-26,79,70,62,65,61,58,88,75,56,30.04,29.97,18,4,18,0.00
2013-9-27,79,72,65,67,65,62,91,80,64,30.01,29.95,18,3,18,0.00
2013-9-28,81,72,65,67,64,62,91,79,56,29.98,29.92,15,3,15,0.00
2013-9-29,79,72,65,68,65,62,90,79,62,29.94,29.74,12,2,12,0.07
2013-9-30,76,70,65,68,64,61,92,82,66,29.74,29.58,43,6,43,0.92
2013-10-1,78,69,62,64,61,58,91,76,53,29.79,29.64,17,4,17,0.00
2013-10-2,76,69,64,59,54,49,76,61,49,30.07,29.78,23,10,23,0.00
2013-10-3,73,66,60,51,47,43,61,51,39,30.26,30.07,26,11,26,0.00
2013-10-4,72,64,58,53,49,44,63,57,49,30.30,30.23,23,10,23,0.00
2013-10-5,65,62,59,60,56,52,92,81,63,30.25,30.08,20,6,20,1.33
2013-10-6,77,69,62,65,62,58,90,80,63,30.10,29.99,20,5,20,0.63
2013-10-7,78,69,63,65,62,60,91,80,58,30.13,30.02,15,3,15,0.06
2013-10-8,75,66,61,64,60,56,89,81,60,30.15,30.09,20,4,20,0.14
2013-10-9,73,65,60,63,59,56,90,80,60,30.12,30.03,18,4,18,0.21
2013-10-10,74,66,59,62,60,57,92,81,62,30.05,29.87,20,4,20,0.02
2013-10-11,74,67,63,66,63,60,92,87,72,30.06,29.86,20,3,20,0.25
2013-10-14,82,74,66,64,59,54,79,62,39,30.11,30.06,8,2,8,0.00
2013-10-15,75,67,61,64,59,56,87,76,56,30.11,29.97,12,2,12,0.00
2013-10-16,75,67,63,65,60,51,91,78,63,29.97,29.68,23,6,23,0.50
2013-10-17,75,65,59,54,49,46,71,57,37,30.02,29.86,15,4,15,0.00
2013-10-18,75,65,56,54,48,40,75,56,33,30.11,30.01,12,3,12,0.00
2013-10-19,77,66,55,59,53,46,80,65,35,30.27,30.11,17,2,17,0.00
2013-10-20,76,68,60,64,59,53,87,73,59,30.31,30.24,13,3,13,0.00
2013-10-21,77,68,60,64,60,57,91,79,57,30.28,30.21,12,2,12,0.00
2013-10-22,78,68,60,66,61,57,91,81,59,30.23,30.14,12,2,12,0.00
2013-10-23,78,68,62,66,62,59,93,84,63,30.20,30.11,13,2,13,0.00
2013-10-24,73,66,60,64,61,58,93,83,64,30.19,30.14,8,2,8,0.01
2013-10-25,78,69,62,64,61,57,89,77,53,30.19,30.13,15,2,15,0.00
2013-10-26,78,68,60,65,61,56,90,78,58,30.24,30.17,14,3,14,0.00
2013-10-27,74,66,62,64,61,59,91,85,67,30.26,30.19,13,2,13,0.00
2013-10-28,75,67,61,64,62,58,93,84,65,30.22,30.11,17,2,17,0.01
2013-10-29,74,67,61,64,61,59,93,84,69,30.11,29.98,13,2,13,0.00
2013-10-30,74,66,59,63,60,56,92,82,65,30.06,29.96,12,2,12,0.01
2013-10-31,78,69,61,59,57,54,88,67,45,30.12,30.05,12,4,12,0.00
2013-11-1,77,68,62,60,57,55,79,70,48,30.15,30.12,17,2,17,0.00
2013-11-2,69,65,60,63,59,54,90,81,77,30.15,30.08,13,3,13,0.48
2013-11-3,71,66,62,64,61,59,92,86,75,30.09,29.98,17,4,17,0.05
2013-11-4,73,67,63,64,60,58,88,79,63,29.99,29.59,22,8,22,0.00
2013-11-5,69,63,57,61,58,53,88,83,72,29.59,29.39,41,7,41,0.27
2013-11-6,71,62,57,56,54,52,88,75,55,29.91,29.52,15,4,15,0.00
2013-11-7,72,62,54,62,55,48,90,79,59,30.13,29.91,14,3,14,0.00
2013-11-8,71,64,59,62,59,56,90,84,70,30.14,30.09,16,2,16,0.00
2013-11-9,73,64,57,63,59,54,93,85,70,30.11,29.97,18,3,18,0.01
2013-11-10,67,61,56,58,55,51,91,81,60,30.01,29.54,48,9,48,0.60
2013-11-11,61,56,52,54,49,47,89,77,61,29.69,29.37,26,10,26,0.32
2013-11-12,65,60,56,54,51,46,76,72,66,29.94,29.69,31,11,31,0.03
2013-11-13,67,63,60,55,53,52,74,69,62,29.96,29.87,32,12,32,0.00
2013-11-14,69,64,58,54,52,50,74,65,54,29.98,29.89,29,8,29,0.00
2013-11-15,64,60,56,55,51,49,80,73,61,29.99,29.85,26,6,26,0.00
2013-11-16,63,61,59,53,50,48,78,68,59,30.12,29.99,26,11,26,0.10
2013-11-17,69,62,58,54,52,49,78,69,57,30.17,30.09,21,6,21,0.00
2013-11-18,65,61,56,54,52,50,80,72,64,30.10,29.78,16,8,16,0.00
2013-11-19,65,59,54,56,52,50,89,78,61,29.81,29.59,32,7,32,0.83
2013-11-20,62,58,50,55,52,47,88,82,69,29.76,29.50,33,6,33,0.50
2013-11-21,58,52,49,48,45,40,90,79,52,29.74,29.58,22,3,22,0.26
2013-11-22,54,51,49,50,48,46,91,89,81,29.60,29.46,17,5,17,2.57
2013-11-23,52,48,46,48,44,41,91,85,72,29.63,29.43,22,5,22,0.51
2013-11-24,53,50,46,46,44,41,85,80,76,29.73,29.60,9,2,9,0.13
2013-11-25,58,48,39,44,38,30,82,71,54,29.89,29.71,28,8,28,0.29
2013-11-26,48,42,36,33,30,27,77,62,47,29.99,29.82,26,7,26,0.00
2013-11-27,48,42,36,34,31,28,77,65,53,30.28,29.99,23,7,23,0.00
2013-11-28,47,44,42,40,37,33,81,75,68,30.33,30.24,26,13,26,0.09
2013-11-29,56,50,46,43,40,38,77,70,59,30.26,30.08,25,12,25,0.00
2013-11-30,56,51,46,45,42,39,78,71,64,30.08,29.81,46,12,46,0.00
2013-12-1,59,56,54,46,45,43,74,67,59,29.82,29.61,69,40,69,0.05
2013-12-2,59,56,54,55,52,48,88,85,80,30.14,29.94,29,6,29,0.71
2013-12-3,58,55,50,49,40,36,82,58,48,30.25,30.09,47,24,47,0.04
2013-12-4,59,51,44,42,38,36,79,63,46,30.26,30.19,23,5,23,0.00
2013-12-5,58,48,40,46,41,35,88,78,63,30.22,30.15,7,1,7,0.00
2013-12-6,56,50,46,47,43,39,88,79,62,30.15,29.96,10,1,10,0.00
2013-12-7,60,51,42,43,40,37,82,66,46,30.35,30.00,20,5,20,0.00
2013-12-8,58,50,43,48,43,37,83,75,65,30.44,30.33,8,1,8,0.00
2013-12-9,59,53,50,51,48,44,86,81,74,30.45,30.39,9,1,9,0.07
2013-12-10,60,53,50,47,46,40,86,77,52,30.53,30.41,25,2,25,0.00
2013-12-11,62,53,48,44,42,39,76,66,49,30.55,30.49,14,3,14,0.00
2013-12-12,59,51,45,46,42,38,83,72,60,30.52,30.36,13,3,13,0.00
2013-12-13,57,50,44,46,43,39,86,77,65,30.35,30.26,10,2,10,0.00
2013-12-14,57,47,39,46,41,36,89,80,62,30.43,30.30,7,1,7,0.00
2013-12-15,55,48,44,48,42,37,86,78,67,30.49,30.40,12,2,12,0.01
2013-12-16,59,50,44,41,37,32,76,63,48,30.55,30.47,12,3,12,0.00
2013-12-17,62,50,44,40,36,33,68,58,41,30.53,30.41,13,3,13,0.00
2013-12-18,58,48,40,42,38,34,83,70,45,30.41,30.29,12,2,12,0.00
2013-12-19,57,47,40,46,41,35,85,78,66,30.31,30.22,7,1,7,0.00
2013-12-20,61,53,47,46,43,41,81,70,55,30.50,30.23,13,4,13,0.00
2013-12-21,61,53,47,44,42,40,81,66,51,30.60,30.49,16,6,16,0.00
2013-12-22,59,50,44,43,40,37,80,68,52,30.57,30.42,12,3,12,0.00
2013-12-23,58,49,40,43,39,35,84,69,56,30.42,30.26,14,3,14,0.00
2013-12-24,58,49,44,42,39,36,80,67,55,30.26,30.15,14,4,14,0.00
2013-12-25,59,50,42,50,44,36,85,79,70,30.15,29.78,16,2,16,0.00
2013-12-26,58,52,47,53,48,44,91,85,74,29.78,29.44,30,8,30,0.79
2013-12-27,56,49,44,48,45,42,92,86,68,29.93,29.53,8,2,8,0.09
2013-12-28,59,51,46,45,43,40,86,74,55,30.09,29.93,13,4,13,0.01
2013-12-29,59,52,46,50,48,42,89,85,71,30.16,30.08,7,1,7,0.01
2013-12-30,58,54,51,50,48,46,90,80,69,30.15,30.08,15,6,15,0.01
2013-12-31,59,54,50,47,44,42,76,68,61,30.10,30.04,26,8,26,0.00
2014-1-1,58,53,50,48,45,42,85,76,70,30.15,30.05,15,5,15,0.00
2014-1-2,58,51,45,49,46,42,90,82,67,30.15,30.09,7,2,7,0.08